Temperature
12 12 11 11 11 10 10 10 10 10 10 9 9 9 9 9 9 9 9 10 10 9 9 9 9 9 9 9 9 9 9 9 9 9 9 9 8 8 8 8 8 7 7
12 11 11 11 11 10 10 10 10 10 9 9 9 9 9 9 9 9 9 9 9 9 9 9 9 9 9 9 9 9 9 9 9 9 8 8 8 8 8 7 7 7 7
12 11 11 11 11 10 10 10 9 9 9 9 9 9 9 9 9 9 9 9 9 9 9 9 9 9 9 9 9 9 9 9 9 9 8 8 8 8 7 7 7 7 7
12 11 11 11 10 10 10 10 10 9 9 9 9 9 9 9 9 9 9 9 9 9 9 9 9 9 9 8 9 8 8 9 9 8 8 8 8 7 7 7 7 6 6
12 11 11 11 10 10 10 10 10 9 9 9 9 9 9 9 9 9 9 9 9 9 9 9 9 9 9 9 8 8 8 8 8 8 8 8 7 7 7 6 6 6 6
11 11 11 10 10 10 10 9 9 9 9 9 9 9 9 9 9 9 9 9 9 9 9 9 9 9 9 9 9 8 8 8 8 8 8 7 7 7 6 6 6 6 5
11 11 11 10 10 10 10 9 9 9 9 9 9 8 8 8 8 9 9 9 9 9 9 9 9 9 9 9 9 8 8 8 8 8 7 7 7 6 6 6 6 5 5
11 11 11 10 10 10 9 9 9 9 9 9 8 8 8 8 8 9 9 9 9 9 9 9 9 9 9 9 9 8 8 8 8 8 7 7 7 6 6 5 5 5 5
11 11 11 10 10 10 10 9 9 10 9 9 9 9 9 10 9 9 9 9 9 9 9 9 9 9 9 8 8 8 8 8 8 7 7 7 6 6 6 5 5 5 4
11 11 11 10 10 10 10 10 10 9 9 9 9 9 9 9 9 9 9 9 9 9 9 9 9 9 9 8 8 8 8 8 8 7 7 6 6 6 5 5 5 4 4
11 11 11 10 10 10 10 10 10 9 9 9 9 9 9 9 9 9 9 9 9 9 9 9 9 9 9 8 8 8 8 7 7 7 7 6 6 5 5 5 4 4 3
11 11 11 11 10 10 10 10 10 10 10 9 10 10 10 9 9 9 9 9 9 9 9 9 9 9 9 8 8 8 8 7 7 7 6 6 6 5 5 4 4 3 3
11 11 11 11 11 11 10 10 10 10 10 10 10 10 10 9 9 9 9 9 9 9 9 9 9 9 9 8 8 8 7 7 7 6 6 6 5 5 4 4 3 3 2
12 12 11 11 11 11 11 10 10 10 10 10 10 10 9 9 9 9 9 9 8 8 8 9 9 9 8 8 8 7 7 7 6 6 6 5 5 4 4 3 3 2 2
12 12 12 11 11 11 11 11 11 10 10 10 10 10 9 9 9 9 9 9 8 8 8 8 8 8 8 8 7 7 7 6 6 6 5 5 4 4 3 3 2 2 1
12 12 12 11 11 11 11 11 11 10 10 10 10 10 9 9 9 9 9 9 8 8 8 8 8 8 8 7 7 6 6 6 5 5 5 4 4 3 3 2 2 1 1
12 12 12 11 11 11 11 11 11 10 10 10 10 10 10 9 9 9 9 9 8 8 8 8 7 7 7 7 6 6 6 5 5 5 4 4 3 3 2 2 1 0 -0
12 12 12 11 11 11 11 11 11 10 10 10 10 10 10 9 9 9 9 9 8 8 8 7 7 7 7 6 6 6 5 5 4 4 4 3 3 2 2 1 1 -0 -1
11 11 11 11 12 11 11 11 11 11 10 10 10 10 10 10 9 9 9 9 8 8 8 7 7 7 6 6 6 5 5 4 4 3 3 3 2 2 1 1 0 -0 -1
11 11 12 11 11 11 11 11 11 10 10 10 10 10 10 10 9 9 9 9 8 8 7 7 7 6 6 5 5 5 4 4 3 3 2 2 2 1 1 0 -0 -1 -2
11 11 11 11 11 11 11 11 11 10 10 10 10 10 10 9 9 9 9 8 8 8 7 7 6 6 5 5 4 4 3 3 3 2 2 1 1 0 -0 -1 -1 -2 -2
11 11 11 11 11 11 11 11 11 10 10 10 10 10 9 9 9 9 8 8 8 7 7 6 6 5 5 4 4 3 3 2 2 2 1 1 0 -0 -1 -1 -2 -2 -3
10 11 11 10 10 11 11 11 10 10 10 10 10 10 9 9 8 8 8 8 7 7 6 6 5 5 4 4 3 2 2 2 1 1 0 0 -0 -1 -1 -2 -2 -3 -3
10 10 11 10 10 10 11 10 10 10 10 10 9 9 9 9 8 8 8 7 7 6 6 5 5 4 4 3 2 2 1 1 1 -0 -1 -1 -1 -2 -2 -2 -3 -3 -4
10 10 10 10 10 10 10 10 10 9 9 9 9 9 8 8 8 8 7 7 6 6 5 5 4 4 3 3 2 1 1 0 -0 -1 -1 -2 -2 -2 -2 -3 -4 -4 -4
10 10 10 10 10 10 10 10 9 9 9 8 8 8 8 8 8 7 7 6 6 5 5 4 3 3 2 2 1 1 0 -1 -1 -2 -2 -3 -3 -4 -4 -4 -4 -4 -5
Wind_Speed
13 12 11 12 13 12 12 10 10 11 10 9 9 8 7 7 7 6 7 8 7 7 7 7 7 7 6 6 5 5 5 5 6 6 6 7 8 8 9 9 10 10 11
13 12 12 11 12 12 12 11 11 10 9 8 8 8 7 7 7 6 7 7 7 6 5 5 6 5 5 5 4 4 4 4 4 5 5 6 7 8 8 9 10 10 11
16 14 12 11 11 13 13 11 11 9 8 8 8 7 6 6 6 6 6 5 6 6 5 4 4 4 3 3 2 2 2 3 3 4 4 5 6 7 8 9 9 10 11
18 15 12 11 13 13 11 10 10 9 8 8 7 6 5 5 6 6 5 5 5 4 4 4 2 2 2 1 1 0 1 1 2 3 4 5 7 8 9 9 10 11 12
19 15 12 12 14 12 11 10 10 9 9 8 7 6 5 5 5 5 5 5 5 4 3 3 2 1 1 1 1 2 2 3 4 4 5 6 8 9 10 10 11 12 12
19 16 12 14 15 11 11 11 11 9 8 8 6 5 4 4 5 5 5 5 5 5 5 4 3 2 1 2 3 4 4 5 5 6 7 8 9 10 11 11 12 12 13
19 16 12 14 14 12 13 13 11 11 9 8 7 5 4 5 5 5 5 5 6 6 6 5 5 4 3 3 4 5 6 7 7 8 9 10 10 11 11 12 12 13 14
19 16 16 14 14 13 14 14 12 10 8 9 7 6 4 5 5 6 6 6 6 6 6 7 6 6 5 5 4 5 7 8 8 9 10 10 11 12 13 13 13 14 14
19 18 18 16 15 14 14 15 15 13 10 10 8 6 4 4 4 5 7 6 6 6 6 6 7 7 7 6 5 6 7 8 9 10 10 11 12 13 13 14 14 15 15
19 19 19 17 16 14 15 15 15 12 12 10 8 6 3 2 3 4 5 6 7 7 6 5 6 7 7 6 6 6 7 8 9 10 11 11 12 13 14 14 14 15 16
18 19 19 17 17 15 16 16 15 14 12 11 9 7 5 3 4 3 3 4 5 6 5 6 5 6 6 6 6 6 7 8 9 10 11 11 12 13 14 14 15 15 16
15 19 19 18 17 15 16 16 15 16 13 13 10 9 7 5 5 5 4 4 4 3 5 4 5 5 5 6 6 6 7 8 9 10 10 11 11 12 14 14 15 16 16
14 19 18 18 17 16 16 16 15 16 15 15 13 10 9 8 5 5 4 3 3 2 3 4 4 4 4 5 4 5 6 7 8 8 9 10 10 12 13 14 15 16 17
16 19 20 19 19 18 17 16 14 15 14 15 14 13 9 8 7 6 5 4 3 4 4 4 3 4 3 4 3 5 5 6 7 8 8 9 10 11 12 13 14 15 16
16 20 20 20 19 19 18 17 14 16 14 14 14 13 11 8 8 7 6 6 5 4 5 4 3 2 2 2 2 4 4 4 6 6 7 8 9 10 11 12 13 14 15
17 19 20 20 19 19 19 17 15 15 15 14 11 13 12 9 8 7 7 6 6 5 4 2 2 2 1 1 2 3 3 4 4 6 7 8 9 10 11 11 12 14 15
19 19 20 20 19 19 19 18 17 16 17 15 13 13 13 11 8 7 7 6 6 6 6 4 2 1 2 2 1 1 2 3 3 5 6 7 8 9 10 11 12 13 14
19 19 19 19 19 19 19 19 18 17 17 16 15 14 13 10 11 8 7 8 7 7 6 6 3 2 2 1 2 2 2 3 4 5 6 7 8 8 9 10 11 12 13
18 19 19 20 19 19 19 18 18 17 17 16 15 14 13 12 12 9 9 8 6 5 5 4 3 1 1 1 2 2 3 3 3 4 5 6 7 8 8 9 10 11 13
17 18 19 19 19 18 18 18 17 16 15 14 13 13 13 13 12 11 9 8 7 6 5 4 3 2 1 1 1 2 3 3 3 3 5 6 6 7 7 8 9 11 12
16 16 17 17 17 16 16 17 16 15 15 13 12 11 11 11 11 9 7 8 7 6 5 4 3 2 1 1 1 2 3 4 3 3 5 4 5 5 5 7 8 11 13
16 16 16 16 16 13 15 18 16 15 14 13 12 10 9 10 10 9 9 8 7 7 6 4 3 3 2 1 1 1 2 3 3 3 5 5 4 5 5 6 9 11 13
16 16 15 16 16 16 18 19 17 14 13 13 12 11 8 8 10 9 9 9 7 5 5 5 4 3 2 2 1 1 2 3 3 3 4 4 5 6 6 7 9 10 13
15 15 15 15 14 15 19 20 18 13 11 11 11 12 11 10 10 11 9 7 6 4 3 3 3 2 2 2 1 0 1 2 2 2 3 3 5 6 7 7 7 10 13
13 13 13 14 14 14 19 20 18 11 9 10 9 10 11 11 14 15 12 10 8 6 8 9 9 8 8 6 4 2 1 1 2 2 3 3 5 7 6 5 6 10 12
12 11 11 12 13 13 19 21 20 11 11 9 8 8 11 12 17 16 12 11 10 7 8 7 8 8 7 6 5 3 1 1 2 1 3 3 4 5 5 4 7 9 10
Wind_Direction
162 161 161 161 162 159 158 158 160 156 154 152 150 149 146 144 140 133 123 102 104 107 110 114 112 109 101 97 89 79 70 59 51 45 37 28 22 17 12 9 6 2 360
164 164 163 164 163 163 163 163 161 158 156 157 155 152 150 149 148 144 138 125 107 102 106 116 117 116 106 102 92 81 68 53 43 33 24 15 10 6 1 359 357 353 350
166 167 167 167 165 165 164 164 161 161 158 159 160 157 155 157 158 153 152 152 140 118 107 113 117 121 115 110 102 87 69 45 24 9 2 358 354 350 347 346 345 343 341
170 169 168 169 166 165 168 166 166 165 164 167 165 162 162 162 168 162 167 171 166 159 136 112 116 133 146 149 133 81 27 358 344 337 336 335 333 332 331 330 330 330 330
173 172 172 169 168 169 172 170 172 171 169 168 166 165 169 173 173 178 181 183 185 189 185 139 137 140 213 243 253 276 290 302 307 313 316 316 318 318 318 319 320 321 321
176 175 174 172 171 173 175 176 174 174 172 166 162 165 173 179 188 193 194 197 200 203 210 209 210 196 213 275 274 276 281 287 292 299 305 307 308 309 311 312 314 316 317
178 179 175 175 177 179 180 179 174 171 169 166 165 168 180 195 206 205 210 212 210 212 219 224 231 236 234 245 267 280 283 286 289 293 297 301 302 305 307 309 310 312 314
181 182 180 179 181 182 182 181 176 173 169 178 180 173 182 195 208 214 215 221 222 216 222 228 233 238 248 255 256 276 287 287 290 293 295 298 301 302 304 305 307 308 310
184 184 185 183 183 184 185 184 182 182 177 184 192 191 190 194 179 194 211 217 219 221 223 224 232 239 245 252 260 260 276 284 287 291 294 297 299 301 303 305 307 309 311
187 187 187 187 186 187 187 187 189 189 181 184 191 212 225 182 189 180 196 210 216 225 227 221 229 235 239 244 251 267 273 280 284 289 293 296 298 300 303 305 307 309 310
190 189 188 189 189 190 190 189 189 191 191 192 191 188 192 198 223 214 206 204 214 220 224 230 230 233 236 241 250 261 267 275 282 287 291 295 299 301 304 306 307 308 309
190 192 190 191 192 192 193 192 191 195 196 198 198 196 195 197 202 210 224 218 221 213 215 223 228 229 233 239 245 257 263 271 280 286 291 297 302 304 306 306 308 309 310
191 193 191 193 193 195 194 192 193 197 200 201 203 205 208 215 206 211 225 229 234 229 215 219 218 222 228 237 244 252 257 269 280 287 294 299 303 305 306 307 309 309 310
192 191 192 195 195 194 193 193 195 199 202 204 208 209 211 213 208 209 215 222 234 236 226 220 200 212 219 231 245 247 263 272 282 287 294 300 303 305 308 309 309 310 312
191 191 192 195 196 194 194 193 198 199 202 206 208 209 212 212 211 213 216 219 228 243 241 219 204 189 202 228 256 261 272 285 284 289 298 303 306 308 310 310 311 312 314
190 190 192 194 195 195 194 195 199 201 202 205 206 208 211 210 209 209 213 217 225 238 247 232 213 189 177 234 276 275 280 292 290 301 307 310 311 312 313 313 315 315 315
191 191 192 193 194 196 195 196 199 198 202 204 203 207 210 208 206 206 207 210 216 220 238 245 229 212 233 250 284 298 301 302 303 310 312 312 314 315 314 315 317 317 318
193 192 190 192 194 195 195 197 199 199 201 202 202 203 208 204 206 205 204 208 212 213 224 240 239 230 244 255 290 300 313 307 303 316 314 315 318 320 321 322 322 322 322
193 191 190 193 194 195 195 198 200 199 201 202 200 201 203 201 205 204 204 205 207 207 215 225 236 234 234 256 289 293 300 311 314 315 314 316 319 319 321 324 325 326 326
191 190 191 193 194 194 194 195 196 198 198 199 199 199 200 200 203 199 199 201 196 195 198 205 215 224 236 271 288 297 299 308 314 320 320 318 318 315 323 327 329 331 332
190 188 190 192 192 193 194 192 191 192 193 193 194 197 199 196 194 190 189 190 184 184 182 193 202 205 219 241 271 290 299 312 316 329 321 319 320 318 324 326 328 330 331
187 186 189 190 191 192 184 182 185 187 188 188 186 186 183 179 174 168 164 163 167 176 183 187 195 205 224 239 265 294 310 315 305 349 322 313 319 316 325 326 329 327 329
185 186 187 189 191 189 178 177 177 183 183 184 181 178 173 172 168 164 150 139 136 132 153 175 179 198 202 207 194 262 299 307 308 338 324 304 321 316 322 318 319 323 328
186 187 187 187 188 185 173 173 168 175 176 178 179 177 173 171 169 161 152 144 135 124 132 138 145 137 117 119 118 87 316 322 330 342 339 301 318 319 320 310 312 321 326
185 184 184 183 184 179 169 166 162 170 166 168 170 171 170 166 157 150 147 140 129 112 95 100 98 96 93 92 91 88 57 354 324 332 354 319 319 322 312 303 314 319 321
178 175 177 179 178 176 167 164 162 166 161 159 155 159 162 159 154 152 154 151 146 143 131 118 106 97 93 87 72 60 59 8 345 320 7 335 324 333 315 308 317 319 321
Height
1503 1507 1511 1514 1517 1519 1522 1524 1527 1529 1531 1533 1535 1536 1538 1539 1540 1541 1542 1542 1543 1543 1543 1543 1543 1543 1542 1542 1541 1541 1540 1539 1538 1537 1535 1534 1533 1531 1529 1527 1526 1524 1522
1500 1504 1508 1512 1515 1517 1520 1523 1526 1528 1531 1533 1534 1536 1537 1539 1540 1541 1542 1542 1543 1543 1543 1543 1543 1543 1543 1542 1541 1541 1540 1539 1538 1537 1535 1534 1532 1530 1529 1527 1525 1523 1521
1498 1502 1506 1509 1512 1516 1519 1522 1525 1527 1530 1532 1534 1535 1537 1538 1539 1540 1541 1542 1543 1543 1543 1543 1543 1543 1543 1542 1541 1541 1540 1538 1537 1536 1535 1533 1531 1530 1528 1526 1524 1522 1520
1495 1499 1503 1507 1510 1513 1517 1520 1523 1526 1528 1531 1533 1534 1536 1537 1539 1540 1541 1541 1542 1543 1543 1543 1543 1543 1542 1542 1541 1540 1539 1538 1536 1535 1534 1532 1530 1529 1527 1525 1522 1520 1518
1492 1496 1500 1504 1508 1511 1515 1518 1521 1524 1527 1529 1531 1533 1535 1536 1537 1538 1540 1540 1541 1542 1542 1542 1542 1542 1541 1541 1540 1539 1538 1537 1535 1534 1532 1531 1529 1527 1525 1523 1521 1518 1516
1489 1493 1497 1501 1505 1509 1512 1516 1519 1522 1525 1528 1530 1532 1534 1535 1536 1537 1538 1539 1540 1540 1541 1541 1541 1540 1540 1539 1538 1537 1536 1535 1534 1532 1530 1529 1527 1525 1523 1521 1518 1516 1514
1485 1489 1493 1497 1501 1505 1509 1513 1517 1520 1523 1526 1529 1531 1533 1534 1535 1536 1537 1537 1538 1538 1539 1539 1539 1539 1538 1537 1536 1536 1534 1533 1532 1530 1528 1526 1525 1523 1521 1518 1516 1513 1511
1481 1485 1489 1493 1498 1502 1507 1510 1513 1517 1520 1523 1526 1529 1532 1534 1533 1533 1534 1535 1536 1536 1536 1536 1536 1536 1536 1535 1534 1533 1532 1531 1529 1527 1526 1524 1522 1520 1518 1515 1513 1510 1508
1476 1481 1486 1490 1494 1499 1503 1506 1510 1513 1516 1520 1524 1527 1529 1530 1531 1532 1532 1533 1533 1534 1534 1534 1534 1534 1533 1532 1532 1530 1529 1528 1526 1525 1523 1521 1519 1516 1514 1512 1509 1507 1504
1472 1477 1482 1486 1490 1495 1499 1503 1507 1511 1514 1517 1520 1522 1525 1526 1528 1529 1530 1530 1531 1531 1531 1531 1531 1531 1530 1529 1529 1528 1526 1525 1523 1521 1519 1517 1515 1513 1510 1508 1505 1502 1500
1467 1472 1477 1481 1486 1490 1495 1499 1503 1507 1510 1514 1516 1519 1521 1523 1524 1526 1527 1528 1528 1528 1528 1528 1528 1528 1527 1527 1526 1525 1523 1522 1520 1518 1516 1513 1511 1509 1506 1504 1501 1498 1495
1461 1466 1471 1477 1481 1486 1490 1495 1499 1503 1507 1510 1513 1515 1518 1520 1521 1523 1525 1525 1526 1526 1525 1525 1525 1525 1524 1523 1522 1521 1520 1518 1516 1514 1512 1509 1507 1504 1502 1499 1496 1493 1490
1454 1460 1465 1471 1476 1481 1486 1491 1495 1499 1503 1506 1509 1512 1515 1517 1519 1521 1522 1522 1523 1523 1522 1522 1522 1522 1521 1520 1519 1517 1516 1514 1512 1510 1507 1505 1502 1499 1497 1494 1491 1488 1485
1448 1454 1460 1466 1471 1476 1481 1486 1490 1495 1498 1502 1505 1508 1510 1513 1515 1517 1519 1520 1520 1520 1520 1519 1519 1518 1517 1516 1515 1513 1512 1510 1508 1505 1503 1500 1497 1495 1492 1489 1486 1483 1480
1444 1450 1455 1461 1467 1471 1476 1481 1485 1489 1494 1497 1501 1504 1506 1509 1511 1513 1514 1516 1518 1517 1517 1516 1515 1514 1514 1513 1511 1509 1507 1505 1503 1501 1498 1496 1493 1490 1487 1484 1481 1478 1475
1438 1444 1450 1455 1461 1466 1471 1476 1480 1485 1489 1492 1496 1499 1501 1504 1506 1508 1510 1512 1513 1514 1513 1512 1512 1511 1510 1509 1507 1505 1503 1501 1499 1497 1494 1491 1489 1486 1483 1479 1477 1473 1470
1433 1438 1444 1450 1455 1460 1465 1470 1475 1479 1483 1487 1490 1494 1497 1500 1502 1504 1506 1507 1508 1509 1509 1508 1508 1507 1506 1505 1503 1501 1499 1497 1495 1493 1490 1487 1484 1481 1478 1475 1472 1469 1466
1427 1433 1439 1444 1450 1455 1460 1464 1469 1473 1477 1481 1485 1488 1492 1495 1497 1499 1501 1502 1503 1504 1505 1504 1503 1503 1502 1500 1499 1497 1495 1493 1491 1489 1486 1483 1480 1477 1474 1471 1468 1465 1461
1422 1427 1433 1438 1444 1449 1454 1459 1464 1468 1472 1476 1480 1483 1487 1490 1492 1494 1496 1497 1499 1500 1500 1500 1499 1499 1498 1497 1495 1494 1492 1489 1487 1485 1482 1479 1476 1473 1470 1467 1464 1460 1457
1416 1421 1427 1433 1438 1444 1449 1453 1458 1463 1467 1471 1475 1478 1482 1485 1487 1489 1491 1493 1494 1495 1495 1495 1495 1495 1494 1493 1491 1490 1488 1486 1484 1481 1479 1476 1473 1470 1467 1463 1460 1457 1453
1410 1416 1422 1427 1433 1438 1443 1447 1452 1457 1462 1466 1470 1473 1477 1480 1483 1485 1487 1488 1489 1490 1491 1491 1491 1490 1490 1489 1488 1486 1484 1483 1480 1478 1475 1473 1470 1467 1463 1460 1456 1453 1449
1405 1411 1416 1422 1427 1432 1437 1442 1447 1452 1456 1461 1465 1469 1472 1475 1478 1480 1483 1484 1486 1486 1487 1487 1487 1487 1486 1486 1484 1483 1482 1480 1477 1476 1473 1470 1467 1463 1460 1457 1453 1449 1445
1399 1405 1410 1416 1422 1427 1432 1437 1443 1447 1451 1456 1460 1464 1467 1470 1473 1476 1478 1480 1481 1482 1483 1484 1484 1484 1483 1482 1482 1480 1479 1477 1475 1472 1469 1466 1464 1460 1457 1453 1450 1446 1442
1394 1399 1405 1411 1416 1422 1427 1432 1438 1443 1447 1451 1455 1459 1463 1466 1468 1471 1474 1475 1477 1478 1479 1480 1481 1481 1480 1480 1479 1478 1476 1474 1472 1469 1467 1464 1461 1457 1454 1450 1447 1443 1439
1389 1394 1400 1405 1411 1417 1422 1427 1433 1438 1442 1447 1451 1455 1459 1461 1464 1467 1470 1471 1473 1474 1476 1477 1478 1478 1477 1477 1476 1475 1473 1471 1469 1467 1464 1462 1458 1454 1451 1448 1444 1440 1436
1385 1390 1395 1401 1406 1412 1417 1422 1428 1433 1437 1442 1446 1451 1455 1458 1461 1464 1466 1468 1469 1471 1473 1474 1474 1475 1474 1474 1473 1472 1470 1469 1466 1464 1462 1459 1456 1452 1448 1445 1442 1438 1433